Hampton, VA

9:27 PM EDT on July 25, 2016 (GMT -0400)
Langley Air Force Base

Weather History for KLFI - October, 2013

Change the Weather History Date:

Thursday, October 24, 2013

  Actual Average Record
Temperature  
Mean Temperature 48 °F -  
Max Temperature 57 °F 66 °F 84 °F (2001)
Min Temperature 40 °F 51 °F 36 °F (1964)
Degree Days  
Heating Degree Days 16    
Moisture  
Dew Point 36 °F    
Average Humidity 63    
Maximum Humidity 97    
Minimum Humidity 38    
Precipitation  
Precipitation 0.00 in - - ()
Sea Level Pressure  
Sea Level Pressure 30.08 in    
Wind  
Wind Speed 7 mph (WNW)    
Max Wind Speed 16 mph    
Max Gust Speed 20 mph    
Visibility 10 miles    
Events      
Averages and records for this station are not official NWS values.
T = Trace of Precipitation, MM = Missing Value Source: NWS Daily Summary

Daily Weather History Graph

Daily Weather History Graph

Search for Another Location

Airport or City:

Trip Planner

Search our weather history database for the weather conditions in past years. The results will help you decide how hot, cold, wet, or windy it might be!

Date:

Astronomy

Oct. 24, 2013 Rise Set
Actual Time 7:21 AM EDT 6:16 PM EDT
Civil Twilight 6:55 AM EDT 6:43 PM EDT
Nautical Twilight 6:24 AM EDT 7:13 PM EDT
Astronomical Twilight 5:54 AM EDT 7:43 PM EDT
Moon 10:42 PM EDT (10/24) 12:18 PM EDT (10/24)
Length of Visible Light 11h 47m
Length of Day
10h 54m
Waning Gibbous, 71% of the Moon is Illuminated
Oct 24
Waning Gibbous
Oct 26
Last Quarter
Nov 3
New
Nov 10
First Quarter
Nov 17
Full

Hourly Weather History & Observations

Time (EDT) Temp. Windchill Dew Point Humidity Pressure Visibility Wind Dir Wind Speed Gust Speed Precip Events Conditions
12:58 AM 46.2 °F 43.3 °F 38.3 °F 74% 29.97 in 10.0 mi WNW 5.8 mph - N/A   Clear
1:58 AM 45.0 °F 42.6 °F 38.5 °F 78% 29.98 in 10.0 mi NW 4.6 mph - N/A   Clear
2:58 AM 44.1 °F 40.8 °F 38.1 °F 80% 29.99 in 10.0 mi WNW 5.8 mph - N/A   Clear
3:58 AM 44.1 °F 40.8 °F 37.4 °F 77% 30.00 in 10.0 mi WNW 5.8 mph - N/A   Clear
4:58 AM 43.0 °F 38.8 °F 37.2 °F 80% 30.02 in 10.0 mi WNW 6.9 mph - N/A   Clear
5:58 AM 41.2 °F 37.3 °F 36.9 °F 85% 30.05 in 10.0 mi West 5.8 mph - N/A   Clear
6:58 AM 40.8 °F 37.8 °F 36.7 °F 85% 30.07 in 10.0 mi WNW 4.6 mph - N/A   Clear
7:58 AM 41.7 °F 38.0 °F 40.8 °F 97% 30.09 in 10.0 mi West 5.8 mph - N/A   Clear
8:58 AM 46.6 °F - 40.6 °F 80% 30.11 in 10.0 mi West 5.8 mph - N/A   Clear
9:58 AM 50.2 °F - 38.3 °F 64% 30.12 in 10.0 mi West 10.4 mph - N/A   Clear
10:58 AM 52.7 °F - 35.6 °F 52% 30.11 in 10.0 mi West 10.4 mph - N/A   Clear
11:58 AM 54.1 °F - 33.8 °F 46% 30.10 in 10.0 mi WNW 10.4 mph - N/A   Clear
12:58 PM 55.2 °F - 32.0 °F 41% 30.08 in 10.0 mi WNW 9.2 mph - N/A   Clear
1:47 PM 57.2 °F - 32.0 °F 38% 30.05 in 10.0 mi West 16.1 mph 19.6 mph N/A   Partly Cloudy
1:58 PM 55.6 °F - 32.0 °F 41% 30.06 in - WSW 12.7 mph - N/A   Partly Cloudy
2:13 PM 53.6 °F - 32.0 °F 44% 30.04 in 10.0 mi West 11.5 mph - N/A   Scattered Clouds
2:58 PM 56.1 °F - 30.6 °F 38% 30.06 in 10.0 mi West 11.5 mph - N/A   Mostly Cloudy
3:08 PM 57.2 °F - 32.0 °F 38% 30.04 in 10.0 mi West 12.7 mph 18.4 mph N/A   Mostly Cloudy
3:32 PM 55.4 °F - 32.0 °F 41% 30.04 in 10.0 mi WNW 11.5 mph 18.4 mph N/A   Overcast
4:58 PM 53.1 °F - 33.3 °F 47% 30.08 in 10.0 mi WNW 8.1 mph - N/A   Overcast
5:58 PM 51.8 °F - 34.2 °F 51% 30.10 in - WNW 5.8 mph - N/A   Overcast
6:58 PM 49.1 °F - 36.7 °F 62% 30.12 in - West 4.6 mph - N/A   Overcast
7:58 PM 46.0 °F 43.9 °F 36.9 °F 70% 30.13 in - West 4.6 mph - N/A   Clear
8:58 PM 45.0 °F 40.6 °F 36.7 °F 73% 30.15 in - West 8.1 mph - N/A   Partly Cloudy
9:58 PM 47.1 °F - 33.4 °F 59% 30.16 in - West 8.1 mph - N/A   Clear
10:58 PM 42.3 °F 37.9 °F 37.0 °F 82% 30.17 in - West 6.9 mph - N/A   Scattered Clouds
11:58 PM 42.4 °F 38.8 °F 37.6 °F 83% 30.18 in - West 5.8 mph - N/A   Clear